Station PCLM4 - Portage Canal, MI Image indicating link to RSS feed of recent meteorological observations for station PCLM4


Conditions at PCLM4 as of
(5:40 am EDT)
0940 GMT on 06/17/2024:
     

Click on the graph icon in the table below to see a time series plot of the last five days of that observation.

5-day plot - Wind Direction Wind Direction (WDIR): N ( 360 deg true )
5-day plot - Wind Speed Wind Speed (WSPD):2.1 m/s
5-day plot - Wind Gust Wind Gust (GST):4.6 m/s
5-day plot - Atmospheric Pressure Atmospheric Pressure (PRES):1003.4 mb
5-day plot - Air Temperature Air Temperature (ATMP): 14.9 °C
5-day plot - Wind Speed at 10 Meters Wind Speed at 10 meters (WSPD10M): 2 m/s
5-day plot - Wind Speed at 20 Meters Wind Speed at 20 meters (WSPD20M): 3 m/s
5-day plot -  Wind Speed, Wind Gust and Atmospheric Pressure Combined plot of Wind Speed, Gust, and Air Pressure
Previous observations
TIME
(EDT)
5-day plot - Wind Direction
WDIR
 
5-day plot - Wind Speed
WSPD
m/s
5-day plot - Wind Gust
GST
m/s
5-day plot - Wave Height
WVHT
m
5-day plot - Dominant Wave Period
DPD
sec
5-day plot - Average Wave Period
APD
sec
5-day plot - Mean Wave Direction
MWD
 
5-day plot - Atmospheric Pressure
PRES
mb
5-day plot - Pressure Tendency
PTDY
mb
5-day plot - Air Temperature
ATMP
°C
5-day plot - Water Temperature
WTMP
°C
5-day plot - Dew Point
DEWP
°C
5-day plot - Salinity
SAL
psu
5-day plot - Visibility
VIS
km
5-day plot - Tide (above MLLW)
TIDE
m
2024-06-17 05:30 am N 2.6 4.6----1003.4- 14.7-----
2024-06-17 05:20 amNNW 2.6 5.1----1003.4- 14.5-----
2024-06-17 05:10 amNNW------1003.4- 14.5-----
2024-06-17 05:00 amNNW 1.5 3.1----1003.4 +3.1 15.0-----
2024-06-17 04:50 amNNW 1.5 4.6----1003.4- 15.4-----
2024-06-17 04:40 amNNW 2.1 4.1----1003.0- 16.9-----
2024-06-17 04:30 amNNW 2.1 4.6----1002.7- 17.6-----
2024-06-17 04:20 amNNW 2.1 4.6----1002.4- 18.2-----
2024-06-17 04:10 amNNW 2.1 5.1----1002.4- 18.8-----
2024-06-17 04:00 amNNW 2.1 4.6----1002.0 +2.0 19.2-----
2024-06-17 03:50 amNNW------1002.0- 19.4-----
2024-06-17 03:40 am N 2.6 5.7----1002.0- 19.5-----
2024-06-17 03:30 amNNW 3.1 5.7----1002.4- 19.4-----
2024-06-17 03:20 amNNW 1.5 4.6----1001.7- 19.9-----
2024-06-17 03:10 amNNW------1001.0- 21.4-----
2024-06-17 03:00 am N 1.5 5.7----1001.4 +2.1 20.8-----
2024-06-17 02:50 am N 2.1 3.6----1000.7- 20.0-----
2024-06-17 02:40 am N 2.1 7.7----1000.7- 20.1-----
2024-06-17 02:30 amNNW 4.6 8.2----1001.4- 19.7-----
2024-06-17 02:20 amNNW 1.0 3.1----1001.4- 16.8-----
2024-06-17 02:10 amNNW 1.0 3.6----1000.3- 18.3-----
2024-06-17 02:00 amNNW 1.5 4.1----1000.3 +0.6 20.9-----
2024-06-17 01:50 am N 1.0 3.1----999.7- 20.4-----
2024-06-17 01:40 amNNE 1.0 4.6----1000.0- 20.6-----
2024-06-17 01:30 amNNW 2.1 3.6----1000.7- 19.8-----
2024-06-17 01:20 am N------1000.3- 23.2-----
2024-06-17 01:10 am N 2.1 4.6----1000.0- 23.6-----
2024-06-17 01:00 am N 1.5 5.7----1000.0 +0.3 23.2-----
2024-06-17 12:50 amNNE 1.5 4.1----999.7- 23.6-----
2024-06-17 12:40 am N 1.5 5.1----999.7- 23.4-----
2024-06-17 12:30 amNNE 2.1 4.6----999.7- 23.4-----
2024-06-17 12:20 amNNE 2.1 4.6----999.7- 23.5-----
2024-06-17 12:10 amNNE 1.0 5.1----999.7- 23.5-----
2024-06-17 12:00 amNNE 2.1 5.1----999.3 +0.0 23.5-----
2024-06-16 11:50 pmNNE 2.1 5.7----999.3- 23.5-----
2024-06-16 11:40 pmNNE 2.1 5.7----999.3- 23.5-----
2024-06-16 11:30 pm NE 2.1 5.7----999.7- 23.6-----
2024-06-16 11:20 pmNNE 2.6 5.7----999.7- 23.6-----
2024-06-16 11:10 pm NE 2.1 5.1----999.7- 23.5-----
2024-06-16 11:00 pmNNE 1.5 4.6----999.7 +0.4------
2024-06-16 10:50 pm NE 2.1 4.6----999.7- 23.4-----
2024-06-16 10:40 pmNNE 1.5 4.6----999.7- 23.4-----
2024-06-16 10:30 pm NE 2.1 4.1----999.7- 23.5-----
2024-06-16 10:20 pm NE 2.1 4.6----999.7- 23.4-----
2024-06-16 10:10 pm N 1.5 3.6----999.7- 23.5-----
2024-06-16 10:00 pmNNE 1.5 6.2----999.7 +1.1 23.4-----
2024-06-16 09:50 pmENE 2.1 5.1----999.7- 23.2-----
2024-06-16 09:40 pm N 1.0 4.1----999.3- 23.2-----
2024-06-16 09:30 pm N 1.5 5.7----999.7- 23.3-----
2024-06-16 09:20 pm N 1.0 4.1----999.3- 23.5-----
2024-06-16 09:10 pmNNE 2.1 5.7----999.3- 23.8-----
2024-06-16 09:00 pm N 2.1 5.7----999.3 +0.3 23.7-----
2024-06-16 08:50 pm N 2.1 5.7----999.0- 23.8-----
2024-06-16 08:40 pm N 1.5 5.1----999.0- 23.9-----
2024-06-16 08:30 pmNNE 1.0 3.1----999.3- 24.0-----
2024-06-16 08:20 pm N 1.0 3.1----999.3- 23.6-----
2024-06-16 08:10 pm N 1.5 3.6----999.3- 23.5-----
2024-06-16 08:00 pmNNE 1.5 2.6----999.3 +1.0 23.5-----
2024-06-16 07:50 pmNNE 1.5 5.1----999.3- 23.5-----
2024-06-16 07:40 pm N 1.5 3.6----999.0- 23.6-----
2024-06-16 07:30 pm N 1.5 3.1----999.0- 23.7-----
2024-06-16 07:20 pm N 2.1 4.1----999.0-------
2024-06-16 07:10 pm N 1.5 2.6----998.6- 23.5-----
2024-06-16 07:00 pm N 2.1 4.6----998.6 -0.4 23.5-----
2024-06-16 06:50 pm N 1.0 2.6----998.6- 22.1-----
2024-06-16 06:40 pm N 1.5 3.1----998.6- 23.4-----
2024-06-16 06:30 pm N 1.0 4.1----999.0- 23.4-----
2024-06-16 06:20 pm N 1.0 5.1----999.0- 23.6-----
2024-06-16 06:10 pm N 2.6 4.6----999.0- 23.9-----
2024-06-16 06:00 pm N 3.1 5.7----999.0 -1.0 24.2-----
2024-06-16 05:50 pmNNW 1.5 6.7----998.6- 24.8-----
2024-06-16 05:40 pm N 2.1 6.2----998.6- 23.7-----
2024-06-16 05:30 pm N 3.6 6.2----998.6- 23.8-----
2024-06-16 05:20 pm N 3.1 6.2----998.6- 24.8-----
2024-06-16 05:10 pm N 4.1 6.7----998.3- 24.4-----
2024-06-16 05:00 pm N 2.1 6.2----998.3 -2.4 24.0-----
2024-06-16 04:50 pm N 3.1 7.7----998.6- 23.7-----
2024-06-16 04:40 pmNNE 2.6 5.1----998.6- 23.7-----
2024-06-16 04:30 pm N 1.0 7.2----998.6- 23.6-----
2024-06-16 04:20 pm N 2.1 7.2----999.0- 22.8-----
2024-06-16 04:10 pmNNE 2.6 7.7----999.0- 22.5-----
2024-06-16 04:00 pmNNE 2.6 5.1----999.0 -1.3 22.4-----
2024-06-16 03:50 pm N------999.3- 21.6-----
2024-06-16 03:40 pmNNE 2.1 6.7----999.7- 21.5-----
2024-06-16 03:30 pm N 2.1 5.7----999.7- 21.3-----
2024-06-16 03:20 pm N 2.1 5.1----999.7- 21.3-----
2024-06-16 03:10 pm NE 1.5 4.6----999.7- 20.4-----
2024-06-16 03:00 pm N 2.1 4.6----1000.0 -1.0 19.3-----
2024-06-16 02:50 pmNNE 2.1-----1000.7- 18.9-----
2024-06-16 02:40 pm N 1.5 4.6----1000.7- 18.9-----
2024-06-16 02:30 pm N 2.1-----1000.7-------
2024-06-16 02:20 pm N 1.5-----1000.7- 18.8-----
2024-06-16 02:10 pm N 2.1 4.6----1000.7- 19.0-----
2024-06-16 02:00 pm N 2.1 4.6----1000.7 -0.3 19.1-----
2024-06-16 01:50 pm N 2.6 5.7----1000.7- 19.4-----
2024-06-16 01:40 pm N 2.1 5.1----1000.3- 19.7-----
2024-06-16 01:30 pm N 2.1 5.1----1000.3- 20.2-----
2024-06-16 01:20 pmNNE 1.5 5.7----1000.3- 20.3-----
2024-06-16 01:10 pmNNE 2.1 5.7----1000.3- 20.1-----
2024-06-16 01:00 pm NE 1.5 5.1----1000.3 -1.1 19.7-----
2024-06-16 12:50 pm NE 1.5 6.2----1000.3- 19.0-----
2024-06-16 12:40 pm NE 2.1 5.7----1000.7-------
2024-06-16 12:30 pm N 1.0 4.1----1001.0- 18.3-----
2024-06-16 12:20 pmNNE 1.5 5.7----1001.0- 18.2-----
2024-06-16 12:10 pmNNE 2.1 5.7----1001.0- 18.3-----
2024-06-16 12:00 pm N 1.5 6.2----1001.0 -0.7 18.6-----
2024-06-16 11:50 am NE 2.1 4.6----1001.0- 18.6-----
2024-06-16 11:40 am N 3.1 6.7----1001.4- 18.8-----
2024-06-16 11:30 amNNE 2.6 6.2----1001.0- 18.7-----
2024-06-16 11:20 am N 2.1 6.2----1001.0- 18.8-----
2024-06-16 11:10 am N------1001.0- 18.8-----
2024-06-16 11:00 am N 3.1 8.8----1001.0 -1.4 18.6-----
2024-06-16 10:50 amNNE 2.1 5.7----1001.4- 19.0-----
2024-06-16 10:40 am N 2.6 5.7----1001.4- 18.4-----
2024-06-16 10:30 am NE 2.6 7.2----1001.0- 18.0-----
2024-06-16 10:20 am N 1.5 6.2----1001.4- 17.6-----
2024-06-16 10:10 amENE 2.1 5.1----1001.4- 17.6-----
2024-06-16 10:00 am NE 1.5 5.7----1001.4 -1.6 17.4-----
2024-06-16 09:50 am N 1.5 7.2----1001.4- 17.3-----
2024-06-16 09:40 amENE 2.6 7.7----1001.4- 16.9-----
2024-06-16 09:30 amNNE 2.1 7.2----1001.7- 17.0-----
2024-06-16 09:20 amNNE 2.1 6.7----1001.7- 16.8-----
2024-06-16 09:10 am NE 2.1 5.7----1001.7- 16.7-----
2024-06-16 09:00 am NE 2.1 6.2----1001.7 -2.4 16.5-----
2024-06-16 08:50 amNNE 2.1 5.1----1001.7- 16.2-----
2024-06-16 08:40 am NE 3.1 5.1----1002.0- 15.9-----
2024-06-16 08:30 am S 1.0 2.6----1002.4- 15.3-----
2024-06-16 08:20 amSSE 0.5 2.1----1002.4- 15.2-----
2024-06-16 08:10 am- 0.0 2.1----1002.7- 15.1-----
2024-06-16 08:00 amNNE 1.5 4.1----1002.4 -3.4 14.9-----
2024-06-16 07:50 am NE 2.1 6.2----1002.4- 14.9-----
2024-06-16 07:40 am E 2.1 7.2----1002.0- 14.7-----
2024-06-16 07:30 am E 3.6 9.3----1002.0- 14.8-----
2024-06-16 07:20 am E 3.1 7.7----1002.4- 14.8-----
2024-06-16 07:10 am E 3.1 7.2----1002.7- 14.8-----
2024-06-16 07:00 amENE 2.6 6.2----1003.0 -3.4 14.7-----
2024-06-16 06:50 amENE 2.1 8.2----1003.4- 14.7-----
2024-06-16 06:40 am E 3.1 8.2----1003.0- 14.7-----
2024-06-16 06:30 amENE 1.5 8.2----1002.7- 14.6-----
2024-06-16 06:20 amENE 2.1 6.7----1003.4- 14.5-----
2024-06-16 06:10 am NE 1.0 4.1----1004.1- 14.4-----
2024-06-16 06:00 amESE 2.1 5.7----1004.1 -3.7 14.3-----
2024-06-16 05:50 am E------1004.4- 14.5-----